TimeEST,TemperatureF,Dew PointF,Humidity,Sea Level PressureIn,VisibilityMPH,Wind Direction,Wind SpeedMPH,Gust SpeedMPH,PrecipitationIn,Events,Conditions,WindDirDegrees,DateUTC
12:54 AM,30.0,21.0,69,30.30,10.0,Calm,Calm,-,N/A,,Clear,0,2013-01-15 05:54:00
1:54 AM,28.0,23.0,81,30.29,10.0,Calm,Calm,-,N/A,,Clear,0,2013-01-15 06:54:00
2:54 AM,27.0,21.9,81,30.29,10.0,NNW,4.6,-,N/A,,Clear,340,2013-01-15 07:54:00
3:54 AM,25.0,21.9,88,30.30,10.0,North,4.6,-,N/A,,Clear,350,2013-01-15 08:54:00
4:54 AM,25.0,21.0,85,30.30,10.0,North,5.8,-,N/A,,Clear,350,2013-01-15 09:54:00
5:54 AM,25.0,19.9,81,30.30,10.0,Calm,Calm,-,N/A,,Clear,0,2013-01-15 10:54:00
6:54 AM,25.0,19.9,81,30.34,10.0,NNW,3.5,-,N/A,,Clear,340,2013-01-15 11:54:00
7:54 AM,21.9,19.9,92,30.37,9.0,North,4.6,-,N/A,,Clear,350,2013-01-15 12:54:00
8:54 AM,24.1,21.0,88,30.38,10.0,North,3.5,-,N/A,,Clear,350,2013-01-15 13:54:00
9:54 AM,27.0,21.9,81,30.39,10.0,Calm,Calm,-,N/A,,Clear,0,2013-01-15 14:54:00
10:54 AM,28.0,21.0,75,30.38,10.0,Calm,Calm,-,N/A,,Scattered Clouds,0,2013-01-15 15:54:00
11:29 AM,28.4,21.2,74,30.30,10.0,Calm,Calm,-,N/A,,Mostly Cloudy,0,2013-01-15 16:29:00
11:54 AM,30.0,21.9,72,30.35,10.0,Calm,Calm,-,N/A,,Overcast,0,2013-01-15 16:54:00
12:41 PM,30.2,21.2,69,30.24,10.0,Calm,Calm,-,N/A,,Scattered Clouds,0,2013-01-15 17:41:00
12:54 PM,30.0,21.0,69,30.29,10.0,Calm,Calm,-,N/A,,Clear,0,2013-01-15 17:54:00
1:54 PM,30.9,21.9,69,30.29,10.0,Calm,Calm,-,N/A,,Clear,0,2013-01-15 18:54:00
2:54 PM,32.0,21.9,66,30.28,10.0,Calm,Calm,-,N/A,,Clear,0,2013-01-15 19:54:00
3:54 PM,30.9,21.0,67,30.29,10.0,Calm,Calm,-,N/A,,Clear,0,2013-01-15 20:54:00
4:54 PM,30.9,21.0,67,30.30,10.0,Calm,Calm,-,N/A,,Clear,0,2013-01-15 21:54:00
5:54 PM,30.9,21.9,69,30.27,10.0,ENE,3.5,-,N/A,,Clear,60,2013-01-15 22:54:00
6:54 PM,30.0,21.9,72,30.29,10.0,Calm,Calm,-,N/A,,Clear,0,2013-01-15 23:54:00
7:54 PM,30.0,23.0,75,30.27,10.0,Calm,Calm,-,N/A,,Partly Cloudy,0,2013-01-16 00:54:00
8:54 PM,30.0,23.0,75,30.22,10.0,Calm,Calm,-,N/A,,Partly Cloudy,0,2013-01-16 01:54:00
9:54 PM,30.0,23.0,75,30.21,10.0,North,3.5,-,N/A,,Overcast,10,2013-01-16 02:54:00
10:54 PM,30.0,24.1,79,30.19,10.0,ENE,5.8,-,N/A,,Overcast,60,2013-01-16 03:54:00
11:14 PM,28.4,24.8,86,30.12,2.5,Variable,4.6,-,0.00,Snow,Light Snow,0,2013-01-16 04:14:00
11:25 PM,28.4,24.8,86,30.12,1.8,Calm,Calm,-,0.00,Snow,Light Snow,0,2013-01-16 04:25:00
11:50 PM,28.4,26.6,93,30.11,1.0,East,5.8,-,0.01,Snow,Light Snow,100,2013-01-16 04:50:00
11:54 PM,28.0,26.1,92,30.16,1.0,East,5.8,-,0.02,Snow,Light Snow,90,2013-01-16 04:54:00